[[{"header":{"parameterUnit":"m.s-1","parameterCategory":1,"la1":30.2991,"la2":30.254,"lo1":-89.0895,"lo2":-89.0444,"dy":0.0017,"dx":0.0017,"nx":28,"ny":28,"refTime":"2025-06-16T03:00:00:Z","depth":0,"parameterNumber":2,"parameterNumberName":"U-component_of_WINDS"},"data":[0,0,0,0,0,0,0,0,0,0,0,0,0,0,0,0,0,0,0,0,0,0,0,0,0,0,0,0,0,0,0,0,0,0,0,0,0,0,0,0,0,0,0,0,0,0,0,0,0,0,0,0,0,0,0,0,0,0,0.3353,0.3355,0,0.3501,0.3502,0.3504,0.3582,0.3582,0.3582,0.3583,0.3735,0.3739,0.3742,0,0,0,0,0,0,0,0,0,0,0,0,0,0.3139,0.3143,0.3353,0.3355,0.3357,0.35,0.3502,0.3504,0.3582,0.3582,0.3582,0.3583,0.3733,0.3738,0.3743,0,0,0,0,0,0,0,0,0,0,0,0,0,0.3254,0.3144,0.3353,0.3413,0.3419,0.35,0.3502,0.3505,0.3582,0.3582,0.3583,0.3583,0.3732,0.3738,0.3743,0.3776,0,0,0.3761,0.3764,0,0,0,0,0,0,0,0,0.3247,0.3262,0.3402,0.3409,0.3416,0.3523,0.3483,0.3596,0.3582,0.352,0.3583,0.3583,0.3664,0.3676,0.3703,0.3783,0.3789,0.3762,0.3765,0.3768,0.377,0,0,0,0,0,0,0,0.3239,0.3256,0.3411,0.3404,0.3413,0.3433,0.3449,0.3505,0.3589,0.3526,0.3532,0.3548,0.3668,0.3697,0.3707,0.3791,0.3762,0.3767,0.3771,0.3773,0.3906,0.3906,0,0,0,0,0,0,0.3222,0.3249,0.3407,0.3416,0.3331,0.3436,0.3455,0.3489,0.3589,0.3604,0.3548,0.3551,0.3687,0.37,0.3713,0.3758,0.3768,0.3773,0.3777,0.3906,0.3906,0.3906,0,0,0,0,0,0,0.3217,0.3235,0.3401,0.3334,0.3357,0.344,0.3477,0.3492,0.3521,0.3606,0.3621,0.3562,0.3688,0.3704,0.376,0.3764,0.3776,0.3781,0.3906,0.3906,0.3906,0.3848,0,0,0,0,0,0,0.321,0.3233,0.3245,0.3334,0.336,0.3444,0.3478,0.3494,0.353,0.3536,0.3623,0.3637,0.3689,0.375,0.3765,0.3773,0.3786,0.3906,0.3906,0.3906,0.385,0.3846,0.3843,0,0,0,0,0,0.3202,0.3223,0.3246,0.3264,0.3377,0.3445,0.346,0.3518,0.353,0.3544,0.3599,0.3635,0.3761,0.3755,0.3773,0.3782,0.3906,0.3906,0.3906,0.3851,0.3847,0.3843,0,0,0,0,0,0,0.3134,0.3236,0.3262,0.3312,0.3369,0.3458,0.3477,0.3511,0.3567,0.357,0.3641,0.366,0.3708,0.3751,0.3742,0.3819,0.3837,0.3841,0.379,0.3786,0.3782,0.3771,0.3791,0,0,0,0,0,0.3124,0.317,0.3257,0.3292,0.332,0.3393,0.3424,0.3465,0.3527,0.3552,0.3611,0.367,0.3723,0.3757,0.381,0.3856,0.3876,0.3871,0.3867,0.3864,0.3866,0.3895,0.3894,0.3906,0.3906,0.3906,0,0,0.3105,0.3167,0.3191,0.328,0.3329,0.3375,0.3413,0.346,0.3495,0.3559,0.3615,0.366,0.3731,0.3781,0.3807,0.3818,0.3867,0.3864,0.386,0.3865,0.3895,0.3893,0.3892,0.3906,0.3906,0.3906,0,0,0.3095,0.3145,0.3181,0.3229,0.3303,0.3352,0.336,0.3444,0.3476,0.3533,0.3582,0.3625,0.3715,0.3764,0.3801,0.3808,0.3844,0.3824,0.3806,0.3832,0.3831,0.3831,0.3835,0.3835,0.3826,0.3826,0.3826,0,0.3062,0.3133,0.3195,0.324,0.3278,0.3337,0.3374,0.3418,0.3505,0.3531,0.3542,0.3657,0.3709,0.3772,0.3774,0.3801,0.3814,0.3815,0.3826,0.3826,0.3827,0.3831,0.3832,0.3823,0.3823,0.3824,0.3824,0,0.309,0.3139,0.3159,0.3242,0.3282,0.3322,0.3391,0.3424,0.3461,0.3508,0.3566,0.363,0.3698,0.3716,0.3752,0.3785,0.379,0.3813,0.3833,0.3822,0.3827,0.3829,0.3819,0.382,0.3821,0.3822,0,0,0.3041,0.3157,0.3164,0.3202,0.3288,0.3327,0.337,0.3437,0.3465,0.3523,0.3562,0.3636,0.3658,0.37,0.3742,0.3765,0.3769,0.3786,0.3789,0.3781,0.3809,0.3792,0.3793,0.3792,0.3792,0.3793,0.3804,0,0.3043,0.3124,0.3181,0.3239,0.3286,0.3343,0.3381,0.3438,0.3483,0.353,0.358,0.3632,0.3657,0.3682,0.3708,0.3763,0.3775,0.3762,0.383,0.3831,0.3811,0.3796,0.3778,0.3785,0.3806,0.3807,0.3807,0,0.3057,0.3113,0.3176,0.3258,0.328,0.3313,0.3379,0.3422,0.3487,0.3519,0.3565,0.3609,0.3658,0.3672,0.3741,0.3731,0.3762,0.3793,0.3795,0.3804,0.3819,0.3806,0.3789,0.379,0.3811,0.381,0.381,0,0.3015,0.3107,0.3157,0.3189,0.3285,0.3307,0.3348,0.3414,0.345,0.3508,0.3532,0.3594,0.3629,0.3676,0.3736,0.3741,0.3799,0.3818,0.3827,0.3825,0.3838,0.3836,0.3826,0.3855,0.3855,0.3855,0.3855,0,0.3013,0.3049,0.314,0.3171,0.3214,0.3279,0.332,0.3366,0.3425,0.3466,0.3519,0.3556,0.3632,0.3679,0.3725,0.3776,0.3791,0.3818,0.383,0.3814,0.3811,0.3836,0.3837,0.3855,0.3855,0.3855,0.3855,0,0.2974,0.3036,0.3095,0.3181,0.3204,0.3232,0.3306,0.3338,0.3386,0.3438,0.3454,0.353,0.3588,0.3651,0.3731,0.3762,0.381,0.3827,0.3788,0.3795,0.3801,0.3799,0.3807,0.3812,0.3836,0.3836,0.3836,0,0.2969,0.2999,0.3088,0.3119,0.3159,0.3209,0.3246,0.3312,0.3349,0.3426,0.3449,0.3511,0.3564,0.3654,0.3717,0.3778,0.3797,0.3796,0.3807,0.379,0.3799,0.3797,0.38,0.3793,0.3792,0.3792,0.3791,0,0.2953,0.2983,0.3035,0.3098,0.3141,0.3194,0.3249,0.3271,0.3348,0.3387,0.3447,0.3488,0.3569,0.363,0.3699,0.3741,0.3779,0.3787,0.3793,0.3777,0.3754,0.3767,0.378,0.3787,0.3787,0.3788,0.3788,0.3788,0.2932,0.2962,0.3029,0.3086,0.3134,0.3184,0.3219,0.3272,0.3323,0.3394,0.3429,0.3489,0.3555,0.3651,0.3693,0.3741,0.3753,0.376,0.3763,0.3764,0.376,0.3745,0.3754,0.3754,0.3754,0.3754,0.3754,0,0.292,0.2966,0.3018,0.3093,0.3137,0.3169,0.3231,0.3267,0.3319,0.3377,0.3428,0.3497,0.3557,0.3624,0.3688,0.3713,0.3732,0.3728,0.3727,0.3737,0.3745,0.3735,0.3712,0.3712,0.3712,0.3712,0.3712,0.3712,0.2919,0.2971,0.3008,0.3084,0.3131,0.319,0.3223,0.327,0.3317,0.3392,0.3441,0.3485,0.3547,0.3616,0.3672,0.369,0.3712,0.3702,0.3726,0.3732,0.3736,0.3739,0.373,0.3706,0.3706,0.3714,0.3714,0.3714]},{"header":{"parameterUnit":"m.s-1","parameterCategory":1,"la1":30.2991,"la2":30.254,"lo1":-89.0895,"lo2":-89.0444,"dy":0.0017,"dx":0.0017,"nx":28,"ny":28,"refTime":"2025-06-16T03:00:00:Z","depth":0,"parameterNumber":3,"parameterNumberName":"V-component_of_WINDS"},"data":[0,0,0,0,0,0,0,0,0,0,0,0,0,0,0,0,0,0,0,0,0,0,0,0,0,0,0,0,0,0,0,0,0,0,0,0,0,0,0,0,0,0,0,0,0,0,0,0,0,0,0,0,0,0,0,0,0,0,4.2123,4.2123,0,4.2104,4.2104,4.2104,4.2097,4.2097,4.2097,4.2097,4.2074,4.2073,4.2073,0,0,0,0,0,0,0,0,0,0,0,0,0,4.2151,4.215,4.2123,4.2123,4.2123,4.2104,4.2104,4.2104,4.2097,4.2097,4.2097,4.2097,4.2074,4.2073,4.2073,0,0,0,0,0,0,0,0,0,0,0,0,0,4.2136,4.215,4.2123,4.2117,4.2117,4.2104,4.2104,4.2103,4.2097,4.2097,4.2097,4.2097,4.2075,4.2074,4.2073,4.2064,0,0,4.2069,4.2069,0,0,0,0,0,0,0,0,4.2137,4.2135,4.2118,4.2118,4.2117,4.2103,4.2105,4.209,4.2097,4.2104,4.2097,4.2097,4.2083,4.2082,4.2078,4.2063,4.2062,4.2069,4.2069,4.2068,4.2068,0,0,0,0,0,0,0,4.2138,4.2136,4.2116,4.2118,4.2117,4.2114,4.2112,4.2102,4.2093,4.2104,4.2103,4.2101,4.2083,4.2079,4.2077,4.2061,4.2069,4.2068,4.2068,4.2067,4.2038,4.2038,0,0,0,0,0,0,4.214,4.2137,4.2116,4.2115,4.2127,4.2114,4.2112,4.2107,4.2093,4.2091,4.2101,4.2101,4.208,4.2078,4.2076,4.2065,4.2068,4.2067,4.2067,4.2038,4.2038,4.2038,0,0,0,0,0,0,4.2141,4.2139,4.2117,4.2126,4.2123,4.2113,4.2108,4.2107,4.2103,4.2091,4.2089,4.2098,4.208,4.2078,4.2067,4.2064,4.2067,4.2066,4.2038,4.2038,4.2038,4.2043,0,0,0,0,0,0,4.2142,4.2139,4.2136,4.2126,4.2122,4.2109,4.2108,4.2106,4.2101,4.2101,4.2089,4.2087,4.208,4.2069,4.2066,4.2063,4.2065,4.2038,4.2038,4.2038,4.2043,4.2042,4.2042,0,0,0,0,0,4.2143,4.2138,4.2136,4.2134,4.2119,4.2109,4.2107,4.2101,4.2101,4.2098,4.2091,4.2087,4.2065,4.2068,4.2065,4.2061,4.2039,4.2038,4.2038,4.2043,4.2043,4.2042,0,0,0,0,0,0,4.2147,4.2136,4.2134,4.2126,4.2119,4.2108,4.2104,4.2101,4.2092,4.2092,4.2084,4.2081,4.2071,4.2065,4.2068,4.2052,4.2051,4.205,4.2056,4.2056,4.2056,4.2057,4.2064,0,0,0,0,0,4.2147,4.2141,4.2131,4.2125,4.2121,4.2113,4.2109,4.2105,4.2096,4.2093,4.2085,4.2076,4.2067,4.2061,4.2052,4.2042,4.2038,4.2037,4.2037,4.2037,4.2037,4.203,4.203,4.2036,4.2036,4.2036,0,0,4.2147,4.214,4.2137,4.2125,4.2119,4.2112,4.2111,4.2103,4.2097,4.2091,4.2081,4.2075,4.2064,4.2054,4.2049,4.2048,4.2034,4.2037,4.2037,4.2036,4.203,4.2029,4.2029,4.2036,4.2036,4.2036,0,0,4.2143,4.2138,4.2131,4.2126,4.2117,4.2111,4.211,4.21,4.2096,4.2086,4.2081,4.2073,4.2058,4.2051,4.2045,4.2038,4.2034,4.2035,4.2035,4.2029,4.2028,4.2028,4.2025,4.2024,4.2035,4.2035,4.2035,0,4.2144,4.2134,4.2128,4.2121,4.2116,4.2111,4.2105,4.2099,4.2087,4.2083,4.2083,4.2064,4.2056,4.2044,4.2043,4.2038,4.2035,4.2037,4.2029,4.2028,4.2028,4.2025,4.2024,4.2035,4.2035,4.2035,4.2035,0,4.2135,4.2128,4.2124,4.2114,4.2108,4.2101,4.2094,4.2089,4.2085,4.208,4.2069,4.206,4.2049,4.2046,4.2042,4.2033,4.2033,4.2031,4.203,4.2027,4.2025,4.2024,4.2035,4.2035,4.2035,4.2035,0,0,4.2133,4.212,4.2119,4.2114,4.2104,4.2098,4.2091,4.2081,4.2077,4.2069,4.2062,4.2049,4.2047,4.2041,4.2036,4.203,4.2025,4.2029,4.2029,4.2029,4.2014,4.2016,4.2015,4.2023,4.2023,4.2023,4.2015,0,4.2128,4.2115,4.211,4.21,4.2093,4.2088,4.2082,4.2074,4.2069,4.2061,4.2054,4.2046,4.2044,4.204,4.2035,4.2027,4.2022,4.2028,4.2015,4.2015,4.2018,4.2014,4.2015,4.2009,4.2014,4.2014,4.2014,0,4.212,4.2113,4.2102,4.2093,4.209,4.2084,4.2075,4.2068,4.2059,4.2056,4.2049,4.2044,4.2035,4.2035,4.2022,4.2026,4.202,4.2016,4.2015,4.2014,4.2014,4.2012,4.2007,4.2006,4.2012,4.2012,4.2013,0,4.2119,4.2107,4.2099,4.2096,4.2084,4.2081,4.2075,4.2067,4.2061,4.2053,4.2049,4.2039,4.2034,4.2026,4.2018,4.2019,4.2005,4.2005,4.2001,4.2001,4.1998,4.1999,4.1992,4.1995,4.1995,4.1995,4.1995,0,4.2114,4.2108,4.2099,4.2094,4.2087,4.208,4.2073,4.2067,4.2059,4.2052,4.2047,4.2041,4.2031,4.2023,4.2017,4.2006,4.2004,4.2,4.1998,4.2,4.2001,4.1997,4.1997,4.1995,4.1995,4.1995,4.1995,0,4.2112,4.2107,4.2098,4.2088,4.2085,4.208,4.2072,4.2066,4.206,4.2052,4.2049,4.204,4.203,4.2022,4.2008,4.2004,4.1994,4.1992,4.1997,4.1996,4.1993,4.1993,4.1983,4.1981,4.1986,4.1986,4.1986,0,4.2109,4.2104,4.2095,4.209,4.2086,4.2079,4.2073,4.2067,4.2061,4.2051,4.2046,4.2036,4.2028,4.2012,4.2004,4.1993,4.1991,4.1988,4.1989,4.1991,4.1991,4.1991,4.199,4.1988,4.1988,4.1988,4.1988,0,4.2105,4.2102,4.2095,4.2087,4.2082,4.2075,4.2068,4.2064,4.2056,4.205,4.204,4.2034,4.2021,4.2011,4.2,4.1993,4.1989,4.1988,4.1986,4.1988,4.1992,4.199,4.1997,4.1988,4.1988,4.1988,4.1988,4.1988,4.2102,4.2097,4.209,4.2083,4.2077,4.207,4.2065,4.2059,4.2051,4.2041,4.2037,4.2027,4.2018,4.2002,4.1996,4.1987,4.1987,4.1985,4.1984,4.1984,4.1984,4.1993,4.1985,4.1985,4.1985,4.1985,4.1985,0,4.2097,4.2092,4.2085,4.2076,4.207,4.2068,4.206,4.2054,4.2046,4.2038,4.2031,4.202,4.201,4.2,4.199,4.1985,4.1982,4.1982,4.1982,4.1981,4.1985,4.1987,4.1984,4.1984,4.1984,4.1984,4.1984,4.1984,4.2093,4.2086,4.2082,4.2071,4.2066,4.2057,4.2053,4.2047,4.204,4.2029,4.2021,4.2015,4.2006,4.1995,4.1986,4.1983,4.1979,4.1979,4.1976,4.198,4.1981,4.1981,4.1983,4.1979,4.1979,4.1973,4.1973,4.1973]}]]